Wind_Speed
10 9 8 4 2 9 14 12 11 11 9 8 9 7 4 5 2 5 14 14 14 13 12 11 11 11 10 10 10 10 10 10 9 10 10 10 11 11 11 13 13 12 12 11 9 7 9 11 9
11 10 9 7 1 9 13 11 8 6 7 10 7 7 6 1 10 5 16 15 13 12 12 10 11 12 12 11 11 11 11 11 10 11 11 12 12 13 13 14 13 13 12 12 13 14 15 14 10
11 12 5 3 11 11 13 8 8 8 9 8 3 6 5 4 11 14 14 12 12 9 10 8 9 11 12 11 11 11 11 11 11 11 13 13 13 14 15 16 16 15 15 15 16 17 17 14 11
12 10 7 3 12 12 12 9 9 8 7 5 7 2 5 12 12 10 11 10 10 10 7 9 9 11 11 10 11 11 11 11 12 13 14 14 14 14 14 14 14 13 14 15 16 17 17 16 14
8 5 1 8 12 12 11 9 9 6 7 6 7 7 10 13 13 12 12 11 11 10 12 10 10 10 11 11 12 12 13 14 14 14 14 14 14 14 14 14 13 14 14 16 16 16 15 15 13
2 1 4 12 12 10 9 8 6 5 7 7 9 12 9 12 11 11 12 11 10 10 10 10 11 11 12 12 11 12 12 14 15 15 14 13 14 14 14 14 14 15 15 14 15 15 14 15 13
5 4 6 11 10 8 5 8 6 5 6 6 11 7 5 10 11 10 9 12 10 9 9 10 10 12 13 13 12 13 13 14 15 15 15 14 15 15 15 14 13 12 13 12 13 14 13 13 13
9 4 8 8 9 9 6 6 9 5 6 11 9 4 9 7 9 9 10 12 13 12 9 9 11 12 12 11 11 13 14 15 15 15 15 16 17 17 16 15 13 11 10 9 10 10 10 11 10
6 11 7 4 4 9 8 6 6 6 8 6 1 4 12 7 8 9 9 10 11 12 11 10 12 11 12 13 13 14 15 16 16 17 17 18 20 18 15 12 12 12 10 9 8 9 9 8 8
7 4 7 3 5 6 7 5 5 6 5 2 6 10 8 9 7 9 10 12 10 11 12 12 10 12 13 12 14 15 16 17 18 18 19 20 18 17 15 10 8 7 7 8 8 6 4 2 11
5 8 7 6 5 7 7 6 6 3 4 2 9 8 6 8 12 13 12 12 11 10 12 13 12 14 10 12 16 17 17 17 17 18 19 21 19 17 14 10 7 5 4 4 3 1 3 5 4
4 4 3 7 8 8 7 6 6 3 2 3 6 3 6 9 12 13 13 13 14 13 12 11 15 13 15 13 16 14 12 16 18 18 17 18 17 16 13 10 6 4 1 2 3 3 4 3 9
4 4 5 7 8 7 7 6 3 2 4 5 6 1 5 13 12 11 11 13 14 10 11 14 16 15 17 18 22 21 16 20 20 18 17 19 20 18 14 11 8 6 5 5 4 4 2 1 7
3 3 5 7 6 5 5 4 3 4 3 7 5 9 11 12 11 11 12 13 14 11 11 12 12 14 17 18 19 19 19 21 19 19 19 19 19 18 16 12 10 8 7 8 10 9 6 6 6
4 7 7 7 7 5 7 7 3 5 5 8 8 9 12 12 12 12 12 13 11 10 10 12 13 14 16 18 20 21 18 16 16 16 17 18 18 16 15 14 13 11 13 10 9 8 10 6 5
7 6 4 6 7 7 6 5 7 6 5 7 9 10 12 13 13 12 13 13 12 11 11 11 13 14 16 18 20 20 19 18 18 18 16 16 16 16 15 14 14 15 13 13 8 8 7 11 12
6 2 14 10 8 5 6 6 5 7 7 7 9 10 11 13 14 15 14 12 13 12 11 11 13 14 16 18 20 19 18 18 18 16 16 17 17 17 16 15 12 15 14 14 12 12 14 15 11
7 5 5 8 13 4 8 11 11 11 7 8 12 11 13 14 15 16 15 14 14 12 13 15 15 16 17 18 18 19 19 18 18 17 17 19 19 18 16 17 18 14 13 14 18 16 18 18 21
7 3 6 5 3 6 8 10 12 9 9 12 12 14 13 14 14 17 17 18 16 15 14 14 16 18 18 20 21 21 20 19 18 18 20 20 17 21 20 18 19 16 23 24 21 23 24 24 25
4 10 6 4 2 3 5 10 8 7 9 8 13 14 16 16 16 19 21 20 19 17 16 16 16 16 17 19 20 21 21 20 17 15 21 22 21 22 21 20 19 23 15 25 25 24 26 26 29
8 8 7 9 10 9 7 5 6 5 3 6 9 13 15 18 18 21 23 22 20 21 18 17 14 13 15 15 20 23 24 24 19 19 20 22 23 25 22 25 25 24 26 28 27 27 28 29 29
7 5 8 9 11 6 4 10 13 10 1 2 4 7 13 17 20 22 24 25 23 22 21 19 16 14 13 15 17 16 19 23 22 19 21 28 26 25 26 24 26 29 29 31 32 33 33 33 30
9 5 6 8 12 8 7 10 5 7 7 7 6 6 9 15 20 20 24 25 25 24 24 25 21 21 21 17 17 16 17 16 17 21 29 29 31 28 30 32 31 33 33 32 34 34 37 32 23
9 9 9 7 9 8 10 10 17 11 8 7 8 8 10 8 17 20 22 25 26 29 30 28 29 23 22 24 21 21 18 18 21 28 23 24 31 30 30 32 34 35 35 34 35 36 33 28 23
6 19 12 11 10 8 9 8 9 10 8 8 11 12 12 8 8 16 21 23 28 30 30 34 36 28 27 28 29 27 26 23 27 25 25 25 27 28 32 32 35 36 36 37 38 35 25 18 19
9 10 11 8 9 14 7 2 3 9 7 9 14 18 15 11 6 9 14 18 23 25 33 36 38 37 37 39 42 30 32 28 31 31 32 29 30 30 37 34 38 36 36 36 29 20 18 14 24
5 10 12 12 16 16 6 8 15 2 4 12 17 15 14 14 9 5 11 23 30 32 36 38 34 35 38 37 36 28 33 30 39 37 34 21 19 26 25 33 37 34 21 15 20 23 20 22 19
9 12 15 12 7 8 11 15 4 10 15 16 15 17 16 16 18 19 18 22 23 23 25 25 28 26 27 31 23 34 34 26 18 30 27 23 11 7 15 12 13 22 30 12 14 18 17 14 14
7 13 9 11 10 13 11 11 18 11 13 16 20 19 15 17 18 25 25 22 22 21 19 22 27 27 27 26 21 31 28 17 17 20 11 11 7 4 5 9 3 3 10 16 17 14 14 18 18
14 15 15 18 15 18 19 24 8 9 15 21 21 17 18 20 24 28 24 22 21 19 20 22 23 24 31 31 26 27 32 18 6 4 7 14 16 14 14 14 14 19 23 20 17 17 18 17 14
Wind_Direction
117 101 110 118 91 83 78 100 110 111 113 120 135 102 122 150 216 140 170 176 158 162 163 156 144 140 150 150 153 144 140 136 135 125 122 115 107 108 112 110 111 108 102 87 83 104 151 149 148
120 105 115 98 89 86 93 98 105 118 135 138 116 89 89 211 205 167 168 170 164 163 159 156 149 144 157 158 152 143 141 136 135 131 124 113 110 110 110 109 107 99 93 88 85 91 111 129 124
104 111 85 69 74 75 98 102 119 127 139 131 107 101 100 143 143 147 162 164 161 167 167 148 156 149 159 159 152 141 138 137 133 133 125 114 116 111 109 108 104 97 91 88 87 89 97 109 114
111 102 60 28 74 85 103 105 109 120 128 147 118 96 138 141 147 155 156 162 160 152 173 167 166 161 163 159 146 141 138 140 139 133 122 127 123 121 115 110 105 100 97 94 90 89 92 96 100
99 117 177 92 94 99 104 107 102 110 127 141 115 140 154 161 165 157 161 165 157 157 154 170 168 167 164 155 151 146 145 145 139 134 128 130 128 124 119 114 116 113 105 97 91 90 92 94 91
165 86 197 121 105 104 93 87 86 107 122 137 126 130 143 166 164 164 167 153 150 158 172 166 169 161 160 156 153 144 145 144 141 137 137 131 131 129 127 124 123 118 108 100 98 98 95 93 91
225 66 109 123 118 110 98 92 85 99 112 122 134 126 173 170 170 175 176 144 153 166 183 166 160 164 160 155 152 147 146 147 145 140 138 135 134 136 136 132 128 121 110 99 99 97 92 90 88
117 141 126 133 137 117 111 101 98 96 124 139 131 304 157 163 184 183 179 160 159 164 183 172 164 164 157 153 151 149 153 153 149 143 141 138 139 138 136 126 115 114 113 97 109 106 101 95 92
168 127 124 121 67 122 114 90 86 104 120 121 107 128 168 146 184 184 179 178 175 165 179 177 164 174 163 159 160 156 158 157 151 150 149 146 144 142 136 129 113 106 96 97 113 117 110 105 107
256 69 97 89 88 139 123 115 106 106 97 117 111 151 170 149 163 176 169 174 179 173 180 177 167 184 173 168 166 167 164 162 159 162 158 159 154 164 152 141 136 122 96 86 93 127 136 223 238
10 82 92 104 118 133 132 125 118 155 105 184 168 160 130 145 160 176 174 182 182 180 185 178 185 186 168 186 174 173 168 170 168 170 171 175 173 168 163 165 164 148 124 52 71 65 301 305 311
135 85 121 113 112 127 128 132 116 81 73 154 169 207 149 153 167 176 178 188 185 185 187 186 189 201 176 198 181 185 175 182 177 176 175 179 182 176 180 181 184 185 197 23 57 355 322 245 258
79 118 123 142 128 150 147 143 181 190 86 143 158 182 167 168 175 183 186 191 190 202 202 198 206 205 199 202 186 177 183 188 183 175 178 183 186 192 197 207 214 225 252 273 283 318 293 277 251
127 172 166 161 156 169 166 179 139 196 151 162 161 172 177 178 183 191 189 192 189 199 202 216 214 210 213 201 200 198 190 184 186 183 187 191 196 202 207 213 225 239 267 280 278 274 276 269 303
179 174 167 171 189 208 212 206 160 207 175 190 179 181 188 191 192 199 193 191 188 208 209 208 208 206 208 203 196 195 196 194 197 203 204 204 209 215 219 223 234 244 259 286 279 241 228 286 317
226 204 178 173 188 226 226 259 228 191 189 214 206 198 196 203 202 201 202 198 208 202 207 205 201 201 199 197 198 200 200 202 205 209 214 220 223 228 236 245 253 258 271 266 270 254 268 275 263
258 185 232 190 206 217 239 306 256 228 201 218 223 217 210 207 206 206 205 204 206 200 202 198 196 196 197 197 195 199 209 212 214 219 221 223 227 229 234 246 256 271 263 243 237 251 257 256 284
205 13 335 279 296 227 253 266 269 245 236 228 222 225 221 214 216 216 204 204 205 220 207 196 194 197 194 199 205 206 211 217 224 226 228 237 229 235 240 257 263 262 252 263 257 272 280 281 282
33 62 357 319 317 281 275 274 278 257 247 236 226 221 234 225 221 215 213 210 211 229 226 212 203 198 200 201 206 212 218 221 225 229 232 240 240 247 244 252 263 268 258 264 269 271 275 277 278
351 5 306 29 330 312 293 299 263 236 239 248 235 232 227 226 222 222 218 211 213 228 229 223 213 206 206 208 210 213 217 225 225 236 245 237 244 245 250 247 244 252 272 267 268 268 273 275 279
355 2 4 333 306 299 292 331 174 140 235 249 236 239 241 233 228 222 221 219 218 220 237 228 218 216 216 217 216 218 219 213 225 222 240 247 242 245 250 255 258 262 263 266 270 276 273 271 280
197 345 338 331 316 186 257 178 56 28 51 2 254 249 239 240 234 233 226 223 224 226 233 220 226 227 225 226 230 233 232 233 227 231 236 243 249 250 252 251 256 258 263 270 275 274 278 277 276
1 322 316 316 293 82 268 319 140 135 31 12 13 322 281 246 237 237 245 239 228 228 230 233 230 232 236 230 237 233 234 239 223 236 240 242 248 253 249 252 257 263 266 272 280 279 285 283 274
306 295 283 263 264 124 41 342 92 41 25 5 341 336 316 254 235 233 236 242 246 235 233 231 243 235 243 240 230 234 225 230 230 245 252 255 255 259 260 260 264 264 266 269 273 285 288 266 268
325 308 277 245 223 65 21 323 354 359 353 7 359 355 350 320 246 237 232 234 243 252 249 237 237 231 240 242 232 234 234 235 235 246 253 259 266 266 265 262 265 267 269 272 277 281 281 237 263
315 340 310 313 323 344 290 279 350 328 329 5 357 343 344 353 328 247 238 244 233 245 248 247 248 250 255 242 238 226 233 236 252 259 253 258 262 262 259 269 266 267 269 269 275 256 254 224 274
301 280 327 306 275 291 307 348 311 226 253 320 330 326 325 310 332 311 225 223 231 234 253 249 247 258 260 255 234 235 239 265 249 253 264 284 320 278 265 271 263 259 275 257 243 251 238 253 263
255 290 297 271 286 293 320 311 298 329 312 314 322 319 307 308 300 320 319 267 259 246 254 239 243 252 254 266 255 253 256 248 271 253 286 275 325 241 253 319 291 271 258 256 243 243 241 248 259
274 263 236 269 298 288 283 302 322 322 314 309 317 316 305 303 292 313 309 296 271 260 251 239 242 243 248 261 270 256 249 253 312 358 348 306 269 227 214 280 332 256 210 239 263 245 248 248 245
280 274 275 288 290 287 303 300 313 315 321 311 309 310 311 302 309 317 298 296 271 253 252 245 244 246 250 262 260 253 248 252 256 289 299 266 259 256 265 281 274 247 245 246 239 241 240 235 236
Height
3174 3175 3175 3173 3178 3175 3175 3179 3180 3182 3183 3183 3182 3185 3184 3183 3182 3183 3184 3186 3187 3187 3187 3188 3189 3191 3192 3193 3194 3195 3196 3197 3198 3199 3200 3200 3201 3201 3202 3202 3203 3204 3204 3204 3204 3203 3203 3205 3207
3176 3176 3175 3173 3178 3175 3179 3181 3182 3183 3183 3183 3182 3184 3186 3183 3182 3182 3184 3186 3188 3187 3188 3188 3191 3192 3194 3194 3195 3196 3198 3199 3200 3201 3201 3202 3203 3204 3205 3205 3206 3206 3206 3206 3206 3204 3204 3207 3209
3178 3178 3176 3166 3174 3176 3179 3182 3183 3183 3182 3184 3185 3185 3186 3184 3183 3184 3186 3188 3188 3187 3188 3190 3192 3193 3193 3195 3196 3198 3199 3201 3202 3203 3203 3204 3205 3206 3208 3208 3208 3209 3209 3209 3209 3208 3208 3209 3211
3181 3181 3180 3177 3177 3180 3182 3184 3184 3184 3185 3185 3187 3186 3185 3186 3186 3187 3188 3189 3190 3192 3189 3191 3193 3193 3195 3198 3199 3199 3201 3203 3203 3205 3205 3207 3208 3209 3210 3211 3211 3212 3212 3212 3212 3212 3212 3213 3213
3183 3182 3181 3181 3182 3184 3185 3186 3187 3187 3187 3187 3188 3188 3185 3185 3186 3188 3189 3190 3192 3193 3191 3192 3194 3195 3197 3199 3199 3201 3203 3204 3205 3206 3208 3209 3211 3212 3213 3214 3215 3215 3215 3215 3215 3215 3215 3216 3216
3183 3183 3182 3183 3186 3187 3188 3188 3188 3188 3188 3188 3189 3186 3187 3186 3187 3188 3189 3191 3195 3196 3191 3193 3194 3197 3198 3199 3201 3203 3205 3206 3207 3208 3211 3212 3214 3215 3216 3217 3218 3217 3217 3217 3218 3218 3218 3218 3218
3179 3179 3182 3184 3187 3188 3190 3189 3190 3190 3189 3190 3190 3191 3187 3187 3188 3189 3190 3193 3197 3197 3193 3193 3196 3197 3199 3201 3203 3205 3206 3208 3209 3211 3214 3215 3217 3218 3219 3220 3221 3221 3221 3221 3221 3221 3221 3220 3220
3180 3183 3185 3184 3185 3189 3190 3190 3190 3191 3191 3190 3192 3191 3187 3188 3188 3189 3190 3194 3197 3198 3197 3194 3196 3197 3200 3202 3204 3206 3208 3210 3211 3214 3216 3217 3218 3220 3222 3223 3223 3224 3224 3224 3224 3224 3223 3223 3222
3179 3180 3183 3185 3181 3188 3190 3191 3191 3191 3190 3191 3191 3192 3189 3188 3189 3189 3190 3192 3194 3196 3198 3199 3196 3197 3200 3202 3204 3207 3209 3211 3213 3216 3217 3219 3221 3223 3224 3225 3226 3227 3226 3226 3226 3226 3226 3224 3221
3153 3179 3184 3187 3189 3189 3192 3193 3193 3193 3193 3192 3192 3191 3188 3187 3189 3190 3191 3194 3194 3196 3198 3201 3201 3199 3200 3203 3205 3208 3210 3212 3214 3216 3218 3220 3222 3224 3225 3227 3228 3228 3228 3228 3228 3228 3227 3223 3208
3179 3182 3187 3189 3190 3191 3193 3193 3194 3192 3193 3193 3192 3189 3188 3188 3189 3193 3194 3195 3195 3195 3198 3200 3203 3202 3203 3207 3205 3207 3210 3212 3214 3217 3219 3220 3222 3224 3226 3228 3228 3229 3230 3229 3230 3229 3227 3223 3215
3186 3187 3189 3190 3191 3192 3193 3194 3194 3195 3194 3193 3191 3189 3189 3190 3192 3194 3196 3196 3196 3196 3198 3199 3203 3201 3206 3207 3205 3209 3212 3213 3215 3217 3220 3223 3225 3226 3227 3228 3230 3230 3231 3231 3230 3229 3227 3224 3219
3189 3189 3190 3191 3192 3192 3192 3193 3193 3195 3194 3193 3190 3190 3190 3192 3194 3196 3196 3196 3197 3196 3197 3197 3198 3199 3202 3203 3204 3208 3213 3211 3214 3218 3220 3222 3224 3226 3228 3229 3230 3231 3231 3231 3231 3229 3227 3224 3217
3189 3189 3190 3191 3192 3192 3192 3192 3192 3194 3194 3193 3191 3191 3192 3194 3195 3196 3195 3196 3195 3195 3196 3197 3197 3198 3200 3202 3205 3208 3209 3211 3215 3217 3219 3221 3223 3225 3226 3228 3229 3229 3230 3230 3230 3230 3228 3225 3220
3188 3188 3189 3190 3190 3190 3191 3193 3191 3192 3193 3193 3192 3192 3194 3195 3195 3196 3195 3195 3194 3195 3195 3195 3195 3197 3199 3201 3204 3206 3210 3214 3217 3219 3220 3222 3223 3225 3225 3227 3227 3228 3228 3229 3228 3227 3227 3226 3226
3188 3190 3188 3190 3189 3188 3190 3189 3188 3190 3192 3193 3194 3193 3193 3194 3195 3195 3194 3194 3194 3195 3195 3196 3196 3196 3198 3201 3205 3208 3210 3213 3215 3217 3220 3222 3223 3225 3226 3227 3227 3227 3228 3228 3227 3226 3227 3226 3225
3187 3186 3184 3186 3186 3187 3189 3186 3189 3188 3190 3192 3193 3193 3193 3194 3194 3194 3194 3194 3194 3193 3194 3195 3196 3197 3199 3201 3204 3207 3210 3212 3214 3216 3218 3219 3220 3222 3224 3225 3225 3225 3225 3225 3226 3226 3225 3225 3224
3183 3185 3186 3184 3175 3186 3187 3187 3187 3183 3187 3190 3191 3193 3193 3193 3193 3194 3194 3195 3195 3193 3193 3193 3195 3196 3198 3201 3204 3206 3208 3210 3213 3214 3216 3215 3218 3220 3222 3222 3222 3223 3223 3223 3221 3223 3222 3222 3220
3185 3185 3186 3184 3184 3185 3185 3185 3185 3186 3186 3188 3189 3189 3192 3192 3194 3194 3192 3194 3193 3192 3192 3193 3193 3194 3197 3199 3201 3204 3206 3208 3210 3211 3212 3213 3215 3216 3218 3219 3219 3220 3218 3219 3219 3218 3218 3218 3217
3188 3187 3183 3185 3184 3185 3183 3182 3182 3184 3185 3186 3187 3187 3188 3190 3192 3192 3191 3191 3191 3191 3191 3192 3192 3194 3195 3197 3199 3201 3204 3206 3208 3210 3208 3209 3211 3212 3214 3215 3216 3213 3205 3213 3214 3216 3216 3215 3215
3188 3188 3186 3185 3183 3183 3182 3181 3181 3182 3185 3185 3185 3187 3187 3187 3188 3189 3189 3189 3189 3190 3189 3190 3192 3193 3194 3195 3196 3198 3199 3201 3205 3207 3207 3204 3206 3206 3208 3209 3210 3211 3210 3209 3209 3210 3210 3210 3211
3191 3189 3187 3185 3180 3176 3179 3181 3180 3179 3182 3184 3184 3184 3185 3185 3186 3186 3185 3185 3187 3188 3187 3187 3189 3191 3192 3192 3194 3196 3197 3198 3200 3203 3204 3199 3201 3202 3204 3205 3205 3205 3205 3205 3205 3205 3205 3203 3205
3190 3189 3187 3184 3178 3176 3179 3170 3176 3177 3183 3184 3183 3183 3182 3182 3183 3184 3182 3183 3182 3185 3186 3184 3185 3186 3188 3189 3190 3192 3193 3195 3198 3197 3195 3197 3197 3197 3198 3199 3200 3200 3201 3200 3199 3199 3200 3199 3199
3189 3187 3183 3179 3171 3175 3176 3178 3178 3178 3182 3181 3181 3180 3178 3176 3178 3181 3182 3180 3180 3179 3180 3180 3180 3182 3184 3184 3186 3186 3188 3190 3191 3190 3193 3193 3191 3191 3193 3193 3193 3194 3195 3194 3193 3192 3191 3190 3195
3187 3180 3174 3172 3165 3165 3175 3178 3174 3177 3180 3179 3178 3176 3174 3172 3174 3176 3177 3179 3174 3176 3175 3175 3173 3177 3178 3178 3179 3183 3183 3182 3183 3184 3187 3186 3185 3185 3184 3186 3185 3185 3187 3186 3186 3186 3185 3185 3187
3189 3188 3179 3175 3168 3168 3173 3175 3174 3177 3178 3178 3178 3174 3172 3169 3171 3172 3174 3174 3176 3168 3165 3169 3168 3167 3169 3168 3156 3167 3174 3176 3176 3176 3177 3176 3175 3176 3175 3176 3177 3176 3177 3178 3178 3179 3181 3181 3182
3190 3187 3183 3182 3176 3170 3167 3171 3173 3173 3176 3176 3175 3175 3174 3169 3166 3167 3169 3166 3165 3164 3160 3160 3162 3159 3160 3162 3157 3162 3168 3168 3171 3172 3171 3166 3168 3167 3167 3166 3165 3167 3170 3169 3169 3171 3172 3176 3178
3189 3187 3185 3178 3174 3172 3169 3173 3169 3173 3174 3173 3174 3173 3170 3167 3160 3160 3160 3158 3157 3156 3154 3154 3155 3157 3158 3156 3152 3158 3162 3162 3166 3161 3166 3163 3165 3164 3161 3161 3160 3160 3162 3165 3168 3169 3170 3171 3172
3185 3183 3181 3181 3180 3174 3168 3167 3167 3169 3172 3172 3171 3169 3164 3164 3158 3156 3154 3151 3151 3150 3149 3149 3150 3151 3150 3150 3149 3147 3155 3158 3162 3154 3157 3159 3161 3160 3160 3161 3158 3159 3163 3165 3165 3166 3166 3168 3170
3183 3181 3180 3176 3175 3172 3170 3169 3168 3168 3169 3168 3167 3164 3159 3157 3154 3150 3148 3146 3144 3144 3145 3146 3145 3146 3145 3146 3147 3147 3149 3153 3155 3155 3157 3158 3159 3157 3158 3158 3159 3161 3161 3161 3162 3164 3164 3165 3165